Location: Mexico
(19.4000°N, 99.1500°W)
Time: 00:47:55
(UTC-06:00)

ISS - Pass Details

Date: 26 July 2017
Orbit: 400 x 408 km, 51.6° (Epoch: 21 July)

Event Time Altitude Azimuth Distance (km) Brightness Sun altitude
Exits shadow 03:58:21 17° 68° (ENE) 1,104 -0.9 -28.4°
Drops below altitude 10° 03:59:51 10° 94° (E) 1,448 -0.4 -28.2°
Sets 04:02:21 0° 113° (ESE) 2,307 0.4 -27.7°
